Find Starlink 31899

NORAD ID: 59850 Int'l Des: 2024-097 Owner: SPXS Country: US Constellation: starlink operational
LEOCIRCULAR

Live Position

Loading 3D Globe...

About Starlink 31899

Description loading...

Upcoming Passes

Passes for default location (London). Set your location on the main map for personalized predictions.

Altitude History

Loading altitude history...

Two-Line Element Set

1 59850U 24097R 26125.55004992 -.00001005 00000-0 -27005-4 0 9995
2 59850 43.0015 313.1749 0000922 256.1993 103.8756 15.27577417110613
Epoch: May 5, 2026 • Age: 6 hours

Current Status

Altitude 495.7 km
Velocity 7.62 km/s
Sub-Earth Point -42.99°S, 77.84°E
Launch Date May 23, 2024
Age 1.9 years
Type internet

Technical Details

Classification Payload
Mass 730.00 kg
Dry Mass 700.00 kg
Total Mass 730.00 kg
Length 0.30 m
Diameter 4.10 m
Span 29.00 m
Shape Box + pan
Manufacturer SPXS
Bus Type Starlink V2M
Phase Status In Orbit
Owner/State SPXS/US

Most Searched